• In Belarus
  • List of Countries
  • For 7 days
  • Water Temperature
  • Weather Map
  • Weather Widgets
  • user-avatar
    Login

    Hourly Weather Lebrija

    Today, 18 February, Tuesday

    Time Temperature Precipitation Wind Pressure Humidity
    00:00 +14°C° 0 mm 3 mps 768 mmHg 85%
    01:00 +14°C° 0 mm 3 mps 768 mmHg 85%
    02:00 +14°C° 0 mm 3 mps 768 mmHg 85%
    03:00 +14°C° 0 mm 2 mps 767 mmHg 85%
    04:00 +14°C° 0 mm 2 mps 767 mmHg 86%
    05:00 +14°C° 0 mm 2 mps 767 mmHg 87%
    06:00 +13°C° 0 mm 2 mps 768 mmHg 87%
    07:00 +14°C° 0 mm 2 mps 768 mmHg 85%
    08:00 +15°C° 0 mm 2 mps 768 mmHg 82%
    09:00 +15°C° 0 mm 2 mps 768 mmHg 79%
    10:00 +17°C° 0 mm 2 mps 768 mmHg 74%
    11:00 +19°C° 0 mm 2 mps 768 mmHg 68%
    12:00 +20°C° 0 mm 2 mps 769 mmHg 65%
    13:00 +21°C° 0 mm 2 mps 768 mmHg 63%
    14:00 +21°C° 0 mm 2 mps 768 mmHg 62%
    15:00 +21°C° 0 mm 2 mps 767 mmHg 61%
    16:00 +20°C° 0.1 mm 2 mps 767 mmHg 66%
    17:00 +19°C° 0.1 mm 2 mps 767 mmHg 71%
    18:00 +18°C° 0.1 mm 3 mps 767 mmHg 77%
    19:00 +17°C° 0 mm 3 mps 767 mmHg 79%
    20:00 +16°C° 0 mm 2 mps 768 mmHg 82%
    21:00 +15°C° 0 mm 2 mps 768 mmHg 85%
    22:00 +15°C° 0 mm 2 mps 768 mmHg 86%
    23:00 +15°C° 0 mm 2 mps 768 mmHg 86%

    Tomorrow, 19 February, Wednesday

    Time Temperature Precipitation Wind Pressure Humidity
    00:00 +15°C° 0 mm 1 mps 768 mmHg 87%
    01:00 +15°C° 0 mm 1 mps 768 mmHg 86%
    02:00 +15°C° 0 mm 1 mps 768 mmHg 85%
    03:00 +15°C° 0 mm 1 mps 768 mmHg 84%
    04:00 +14°C° 0 mm 1 mps 768 mmHg 86%
    05:00 +14°C° 0 mm 1 mps 768 mmHg 87%
    06:00 +13°C° 0 mm 1 mps 768 mmHg 88%
    07:00 +14°C° 0 mm 1 mps 768 mmHg 86%
    08:00 +15°C° 0 mm 2 mps 768 mmHg 84%
    09:00 +15°C° 0 mm 2 mps 769 mmHg 82%
    10:00 +17°C° 0 mm 2 mps 768 mmHg 75%
    11:00 +18°C° 0 mm 2 mps 768 mmHg 68%
    12:00 +20°C° 0 mm 2 mps 768 mmHg 61%
    13:00 +20°C° 0 mm 2 mps 768 mmHg 60%
    14:00 +20°C° 0 mm 2 mps 767 mmHg 59%
    15:00 +21°C° 0 mm 3 mps 767 mmHg 58%
    16:00 +19°C° 0 mm 2 mps 766 mmHg 62%
    17:00 +18°C° 0 mm 2 mps 766 mmHg 66%
    18:00 +17°C° 0 mm 2 mps 766 mmHg 70%
    19:00 +16°C° 0 mm 2 mps 766 mmHg 73%
    20:00 +15°C° 0 mm 2 mps 766 mmHg 77%
    21:00 +14°C° 0 mm 2 mps 766 mmHg 80%
    22:00 +13°C° 0 mm 2 mps 766 mmHg 81%
    23:00 +13°C° 0 mm 2 mps 766 mmHg 82%

    Day after tomorrow, 20 February, Thursday

    Time Temperature Precipitation Wind Pressure Humidity
    00:00 +12°C° 0 mm 2 mps 766 mmHg 83%
    01:00 +12°C° 0 mm 2 mps 765 mmHg 84%
    02:00 +12°C° 0 mm 2 mps 765 mmHg 84%
    03:00 +10°C° 0 mm 2 mps 764 mmHg 85%
    04:00 +10°C° 0 mm 2 mps 764 mmHg 86%
    05:00 +10°C° 0 mm 2 mps 764 mmHg 86%
    06:00 +10°C° 0 mm 2 mps 764 mmHg 87%
    07:00 +12°C° 0 mm 2 mps 764 mmHg 83%
    08:00 +13°C° 0 mm 2 mps 764 mmHg 80%
    09:00 +14°C° 0 mm 1 mps 764 mmHg 76%
    10:00 +15°C° 0 mm 1 mps 763 mmHg 70%
    11:00 +17°C° 0 mm 2 mps 763 mmHg 64%
    12:00 +19°C° 0 mm 2 mps 763 mmHg 58%
    13:00 +19°C° 0 mm 2 mps 762 mmHg 56%
    14:00 +20°C° 0 mm 2 mps 762 mmHg 54%
    15:00 +21°C° 0 mm 2 mps 761 mmHg 52%
    16:00 +20°C° 0 mm 1 mps 761 mmHg 57%
    17:00 +19°C° 0 mm 1 mps 761 mmHg 62%
    18:00 +18°C° 0 mm 1 mps 761 mmHg 67%
    19:00 +16°C° 0 mm 1 mps 762 mmHg 69%
    20:00 +15°C° 0 mm 2 mps 763 mmHg 72%
    21:00 +15°C° 0 mm 2 mps 763 mmHg 74%
    22:00 +14°C° 0 mm 2 mps 763 mmHg 76%
    23:00 +14°C° 0 mm 2 mps 763 mmHg 77%

    21 February, Friday

    Time Temperature Precipitation Wind Pressure Humidity
    00:00 +13°C° 0 mm 2 mps 763 mmHg 79%
    01:00 +13°C° 0 mm 2 mps 763 mmHg 79%
    02:00 +13°C° 0 mm 2 mps 763 mmHg 79%
    03:00 +12°C° 0 mm 2 mps 763 mmHg 79%
    04:00 +12°C° 0 mm 2 mps 764 mmHg 80%
    05:00 +12°C° 0 mm 1 mps 764 mmHg 81%
    06:00 +11°C° 0 mm 1 mps 764 mmHg 82%
    13:00 +21°C° 0 mm 1 mps 766 mmHg 53%
    14:00 +21°C° 0 mm 2 mps 765 mmHg 51%
    15:00 +23°C° 0 mm 2 mps 765 mmHg 49%
    16:00 +20°C° 0 mm 2 mps 765 mmHg 54%
    17:00 +18°C° 0 mm 2 mps 765 mmHg 60%
    18:00 +17°C° 0 mm 3 mps 765 mmHg 65%
    19:00 +16°C° 0 mm 2 mps 766 mmHg 67%
    20:00 +15°C° 0 mm 2 mps 766 mmHg 70%
    21:00 +14°C° 0 mm 2 mps 767 mmHg 72%
    22:00 +13°C° 0 mm 2 mps 767 mmHg 74%
    23:00 +13°C° 0 mm 2 mps 767 mmHg 76%

    22 February, Saturday

    Time Temperature Precipitation Wind Pressure Humidity
    00:00 +12°C° 0 mm 2 mps 767 mmHg 78%
    01:00 +12°C° 0 mm 2 mps 767 mmHg 80%
    02:00 +12°C° 0 mm 2 mps 767 mmHg 81%
    03:00 +10°C° 0 mm 2 mps 767 mmHg 83%
    04:00 +10°C° 0 mm 2 mps 767 mmHg 84%
    05:00 +10°C° 0 mm 2 mps 767 mmHg 85%
    06:00 +9°C° 0 mm 2 mps 767 mmHg 87%
    07:00 +12°C° 0 mm 2 mps 768 mmHg 82%
    08:00 +13°C° 0 mm 2 mps 768 mmHg 77%
    09:00 +14°C° 0 mm 2 mps 768 mmHg 73%
    10:00 +16°C° 0 mm 2 mps 768 mmHg 66%
    11:00 +17°C° 0 mm 2 mps 768 mmHg 60%
    12:00 +19°C° 0 mm 2 mps 768 mmHg 53%
    13:00 +20°C° 0 mm 2 mps 768 mmHg 51%
    14:00 +21°C° 0 mm 2 mps 767 mmHg 49%
    15:00 +21°C° 0 mm 2 mps 767 mmHg 47%
    16:00 +20°C° 0 mm 2 mps 767 mmHg 52%
    17:00 +19°C° 0 mm 2 mps 767 mmHg 56%
    18:00 +17°C° 0 mm 2 mps 767 mmHg 61%
    19:00 +16°C° 0 mm 2 mps 768 mmHg 63%
    20:00 +15°C° 0 mm 2 mps 768 mmHg 65%
    21:00 +13°C° 0 mm 2 mps 768 mmHg 67%
    22:00 +13°C° 0 mm 2 mps 768 mmHg 68%
    23:00 +12°C° 0 mm 2 mps 769 mmHg 70%

    23 February, Sunday

    Time Temperature Precipitation Wind Pressure Humidity
    00:00 +12°C° 0 mm 2 mps 769 mmHg 71%
    01:00 +12°C° 0 mm 2 mps 768 mmHg 71%
    02:00 +10°C° 0 mm 2 mps 768 mmHg 72%
    03:00 +10°C° 0 mm 2 mps 768 mmHg 72%
    04:00 +10°C° 0 mm 2 mps 768 mmHg 73%
    05:00 +9°C° 0 mm 2 mps 768 mmHg 74%
    06:00 +9°C° 0 mm 3 mps 768 mmHg 75%
    07:00 +10°C° 0 mm 3 mps 768 mmHg 70%
    08:00 +12°C° 0 mm 3 mps 769 mmHg 66%
    09:00 +13°C° 0 mm 3 mps 769 mmHg 62%
    10:00 +16°C° 0 mm 2 mps 769 mmHg 55%
    11:00 +18°C° 0 mm 2 mps 769 mmHg 49%
    12:00 +20°C° 0 mm 2 mps 769 mmHg 42%
    13:00 +21°C° 0 mm 2 mps 768 mmHg 41%
    14:00 +23°C° 0 mm 2 mps 768 mmHg 40%
    15:00 +24°C° 0 mm 2 mps 767 mmHg 39%
    16:00 +21°C° 0 mm 2 mps 767 mmHg 45%
    17:00 +19°C° 0 mm 2 mps 767 mmHg 51%
    18:00 +17°C° 0 mm 2 mps 767 mmHg 57%
    19:00 +16°C° 0 mm 2 mps 767 mmHg 60%
    20:00 +15°C° 0 mm 2 mps 768 mmHg 63%
    21:00 +14°C° 0 mm 2 mps 768 mmHg 65%
    22:00 +13°C° 0 mm 2 mps 768 mmHg 66%
    23:00 +13°C° 0 mm 2 mps 768 mmHg 66%
    Show more